Weather History for Fryeburg, ME

Change the Weather History Date:

Sunday, December 8, 2013

  Actual Average Record
Temperature  
Mean Temperature 24 °F -  
Max Temperature 28 °F 36 °F 48 °F (1999)
Min Temperature 19 °F 16 °F -5 °F (2000)
Degree Days  
Heating Degree Days 42    
Moisture  
Dew Point 7 °F    
Average Humidity 49    
Maximum Humidity 75    
Minimum Humidity 33    
Precipitation  
Precipitation 0.00 in - - ()
Sea Level Pressure  
Sea Level Pressure 30.52 in    
Wind  
Wind Speed 6 mph (West)    
Max Wind Speed 15 mph    
Max Gust Speed 22 mph    
Visibility 10 miles    
Events      
Averages and records for this station are not official NWS values.
T = Trace of Precipitation, MM = Missing Value Source: NWS Daily Summary

Daily Weather History Graph

Daily Weather History Graph

Search for Another Location

Airport:

Trip Planner

Search our weather history database for the weather conditions in past years. The results will help you decide how hot, cold, wet, or windy it might be!

Date:

Astronomy

Dec. 08, 2013 Rise Set
Actual Time 7:05 AM EST 4:05 PM EST
Civil Twilight 6:33 AM EST 4:38 PM EST
Nautical Twilight 5:56 AM EST 5:14 PM EST
Astronomical Twilight 5:21 AM EST 5:49 PM EST
Moon 11:14 AM EST (12/8) 11:02 PM EST (12/8)
Length of Visible Light 10h 05m
Length of Day
8h 59m
Waxing Crescent, 40% of the Moon is Illuminated
Dec 8
Waxing Crescent
Dec 9
First Quarter
Dec 17
Full
Dec 25
Last Quarter
Jan 1
New

Hourly Weather History & Observations

Time (EST) Temp. Windchill Dew Point Humidity Pressure Visibility Wind Dir Wind Speed Gust Speed Precip Events Conditions
12:54 AM 25.0 °F 14.8 °F 6.1 °F 45% 30.42 in 10.0 mi WNW 10.4 mph 21.9 mph N/A   Clear
1:54 AM 25.0 °F 17.1 °F 6.1 °F 45% 30.43 in 10.0 mi Variable 6.9 mph 19.6 mph N/A   Clear
2:54 AM 23.0 °F 17.0 °F 6.1 °F 48% 30.44 in 10.0 mi WSW 4.6 mph - N/A   Clear
3:54 AM 23.0 °F 13.9 °F 6.1 °F 48% 30.45 in 10.0 mi West 8.1 mph - N/A   Clear
4:54 AM 23.0 °F - 5.0 °F 46% 30.47 in 10.0 mi Calm Calm - N/A   Clear
5:54 AM 21.9 °F 11.7 °F 3.9 °F 46% 30.50 in 10.0 mi SSW 9.2 mph - N/A   Clear
6:54 AM 23.0 °F 12.4 °F 3.9 °F 44% 30.52 in 10.0 mi West 10.4 mph 16.1 mph N/A   Clear
7:54 AM 24.1 °F 13.1 °F 3.9 °F 42% 30.53 in 10.0 mi West 11.5 mph 20.7 mph N/A   Clear
8:54 AM 25.0 °F 12.6 °F 3.9 °F 41% 30.53 in 10.0 mi West 15.0 mph 20.7 mph N/A   Clear
9:54 AM 27.0 °F 23.0 °F 3.9 °F 37% 30.54 in 10.0 mi Variable 3.5 mph - N/A   Clear
10:54 AM 28.9 °F 21.9 °F 3.9 °F 35% 30.53 in 10.0 mi WNW 6.9 mph - N/A   Clear
11:54 AM 28.9 °F 25.2 °F 3.0 °F 33% 30.52 in 10.0 mi Variable 3.5 mph - N/A   Clear
12:54 PM 28.9 °F 25.2 °F 3.9 °F 35% 30.51 in 10.0 mi NE 3.5 mph - N/A   Clear
1:54 PM 28.0 °F - 3.9 °F 36% 30.52 in 10.0 mi Calm Calm - N/A   Clear
2:54 PM 28.9 °F 25.2 °F 3.9 °F 35% 30.51 in 10.0 mi SW 3.5 mph - N/A   Clear
3:54 PM 26.1 °F - 3.9 °F 39% 30.54 in 10.0 mi Calm Calm - N/A   Clear
4:54 PM 21.0 °F - 7.0 °F 55% 30.55 in 10.0 mi Calm Calm - N/A   Clear
5:54 PM 21.0 °F - 10.0 °F 63% 30.56 in 10.0 mi Calm Calm - N/A   Clear
6:54 PM 19.9 °F - 10.9 °F 68% 30.55 in 10.0 mi Calm Calm - N/A   Clear
7:54 PM 21.0 °F - 10.9 °F 65% 30.55 in 10.0 mi Calm Calm - N/A   Partly Cloudy
8:54 PM 21.9 °F - 12.9 °F 68% 30.56 in 10.0 mi Calm Calm - N/A   Overcast
9:54 PM 21.9 °F - 14.0 °F 72% 30.57 in 10.0 mi Calm Calm - N/A   Overcast
10:54 PM 23.0 °F - 12.9 °F 65% 30.55 in 10.0 mi Calm Calm - N/A   Overcast
11:54 PM 21.9 °F - 15.1 °F 75% 30.53 in 10.0 mi Calm Calm - N/A   Overcast